FW7706 Weather Reports


Display with metric or nautical units.
time (UTC)temp
F
wind
direction
speed
MPH
gust
MPH
rain 1hr
in
rain 24hr
in
rain mn
in
humidity
%
barometer
mb
20260505124417 0 216 3.0 5.0 0.00 0.00 0.00 1005.7
20260505123914 0 185 5.0 7.0 0.00 0.00 0.00 1005.3
20260505123410 0 192 3.0 5.0 0.00 0.00 0.00 1005.7
20260505122906 0 196 3.0 5.0 0.00 0.00 0.00 1005.3
20260505122404 0 186 3.0 5.0 0.00 0.00 0.00 1005.7
20260505121900 0 171 4.0 5.0 0.00 0.00 0.00 1005.7
20260505121357 0 178 2.0 3.0 0.00 0.00 0.00 1005.7
20260505120853 0 192 2.0 2.0 0.00 0.00 0.00 1005.7
20260505120349 0 208 1.0 1.0 0.00 0.00 0.00 1005.7
20260505115848 0 215 4.0 7.0 0.00 0.00 0.00 1005.3
20260505115346 0 228 1.0 2.0 0.00 0.00 0.00 1005.3
20260505114843 0 224 2.0 2.0 0.00 0.00 0.00 1005.3
20260505114340 0 215 2.0 2.0 0.00 0.00 0.00 1005.7
20260505113836 0 200 3.0 3.0 0.00 0.00 0.00 1005.0
20260505113333 0 169 3.0 3.0 0.00 0.00 0.00 1005.3
20260505112828 0 205 2.0 3.0 0.00 0.00 0.00 1005.3
20260505112326 0 187 2.0 2.0 0.00 0.00 0.00 1005.3
20260505111821 0 228 5.0 6.0 0.00 0.00 0.00 1005.3
20260505111317 0 212 3.0 3.0 0.00 0.00 0.00 1005.0
20260505110813 0 207 4.0 5.0 0.00 0.00 0.00 1005.0
20260505110311 0 191 2.0 3.0 0.00 0.00 0.00 1005.0
20260505101745 0 197 2.0 2.0 0.00 0.00 0.00 1005.0
20260505101241 0 199 3.0 3.0 0.00 0.00 0.00 1005.3
20260505100738 0 178 4.0 6.0 0.00 0.00 0.00 1005.3
20260505100234 0 177 4.0 6.0 0.00 0.00 0.00 1005.3
20260505095729 0 208 5.0 7.0 0.00 0.00 0.00 1005.3
20260505095228 0 210 4.0 7.0 0.00 0.00 0.00 1005.7
20260505094723 0 173 3.0 5.0 0.00 0.00 0.00 1005.3
20260505094220 0 209 2.0 2.0 0.00 0.00 0.00 1005.3
20260505093716 0 212 2.0 2.0 0.00 0.00 0.00 1005.3
20260505093214 0 184 3.0 5.0 0.00 0.00 0.00 1005.3
20260505092710 0 252 5.0 6.0 0.00 0.00 0.00 1005.3
20260505092209 0 224 3.0 3.0 0.00 0.00 0.00 1005.3
20260505091706 0 189 4.0 6.0 0.00 0.00 0.00 1005.7
20260505091204 0 175 3.0 3.0 0.00 0.00 0.00 1005.3
20260505090701 0 189 3.0 3.0 0.00 0.00 0.00 1005.7
20260505090159 0 208 2.0 2.0 0.00 0.00 0.00 1005.7
20260505085656 0 200 3.0 3.0 0.00 0.00 0.00 1005.3
20260505085155 0 197 3.0 5.0 0.00 0.00 0.00 1005.7
20260505084652 0 173 4.0 5.0 0.00 0.00 0.00 1005.3
20260505084150 0 181 6.0 7.0 0.00 0.00 0.00 1005.3
20260505083647 0 187 3.0 5.0 0.00 0.00 0.00 1005.3
20260505083144 0 225 2.0 2.0 0.00 0.00 0.00 1005.3
20260505082639 0 202 3.0 3.0 0.00 0.00 0.00 1005.7
20260505082137 0 185 3.0 5.0 0.00 0.00 0.00 1005.7
20260505081632 0 168 5.0 7.0 0.00 0.00 0.00 1005.7
20260505081131 0 222 2.0 2.0 0.00 0.00 0.00 1005.7
20260505080627 0 196 2.0 2.0 0.00 0.00 0.00 1005.7
20260505080123 0 183 2.0 3.0 0.00 0.00 0.00 1006.0
20260505075620 0 168 3.0 5.0 0.00 0.00 0.00 1006.0
20260505075116 0 220 4.0 6.0 0.00 0.00 0.00 1005.7
20260505074613 0 179 3.0 5.0 0.00 0.00 0.00 1006.0
20260505074110 0 163 5.0 6.0 0.00 0.00 0.00 1006.0
20260505073608 0 196 3.0 5.0 0.00 0.00 0.00 1006.0
20260505073106 0 200 4.0 5.0 0.00 0.00 0.00 1006.0
20260505072601 0 235 3.0 3.0 0.00 0.00 0.00 1006.0
20260505072058 0 227 2.0 2.0 0.00 0.00 0.00 1006.4
20260505071553 0 201 3.0 3.0 0.00 0.00 0.00 1006.4
20260505071052 0 191 2.0 3.0 0.00 0.00 0.00 1006.0
20260505070548 0 190 3.0 6.0 0.00 0.00 0.00 1006.0
20260505070044 0 193 5.0 8.0 0.00 0.00 0.00 1006.0
20260505065540 0 181 1.0 2.0 0.00 0.00 0.00 1006.4
20260505065037 0 141 3.0 3.0 0.00 0.00 0.00 1006.8
20260505064534 0 205 3.0 3.0 0.00 0.00 0.00 1006.4
20260505064033 0 190 3.0 3.0 0.00 0.00 0.00 1006.8
20260505063530 0 185 3.0 3.0 0.00 0.00 0.00 1006.8
20260505063025 0 214 3.0 3.0 0.00 0.00 0.00 1006.8
20260505062522 0 196 3.0 3.0 0.00 0.00 0.00 1006.8
20260505062020 0 189 2.0 3.0 0.00 0.00 0.00 1006.8
20260505061517 0 230 3.0 5.0 0.00 0.00 0.00 1006.8
20260505061015 0 174 3.0 5.0 0.00 0.00 0.00 1006.8
20260505060512 0 175 3.0 5.0 0.00 0.00 0.00 1007.1
20260505060009 0 204 3.0 3.0 0.00 0.00 0.00 1007.1
20260505055504 0 191 4.0 5.0 0.00 0.00 0.00 1007.1
20260505055001 0 200 2.0 2.0 0.00 0.00 0.00 1006.8
20260505054458 0 192 2.0 2.0 0.00 0.00 0.00 1006.8
20260505053956 0 205 5.0 6.0 0.00 0.00 0.00 1006.8
20260505053453 0 200 2.0 3.0 0.00 0.00 0.00 1007.5
20260505052950 0 254 2.0 3.0 0.00 0.00 0.00 1007.1
20260505052447 0 190 3.0 5.0 0.00 0.00 0.00 1007.1
20260505051944 0 192 2.0 3.0 0.00 0.00 0.00 1007.1
20260505051441 0 184 2.0 2.0 0.00 0.00 0.00 1007.1
20260505050939 0 182 1.0 2.0 0.00 0.00 0.00 1007.5
20260505050437 0 179 4.0 6.0 0.00 0.00 0.00 1007.5
20260505041405 0 176 3.0 3.0 0.00 0.00 0.00 1007.5
20260505040901 0 140 4.0 8.0 0.00 0.00 0.00 1007.5
20260505040359 0 167 2.0 3.0 0.00 0.00 0.00 1007.8
20260505035855 0 199 3.0 3.0 0.00 0.00 0.00 1007.8
20260505035351 0 194 2.0 2.0 0.00 0.00 0.00 1007.8
20260505034849 0 229 3.0 3.0 0.00 0.00 0.00 1007.8
20260505034345 0 182 3.0 5.0 0.00 0.00 0.00 1008.1
20260505033843 0 188 3.0 3.0 0.00 0.00 0.00 1007.8
20260505033339 0 183 4.0 6.0 0.00 0.00 0.00 1007.5
20260505032838 0 185 3.0 5.0 0.00 0.00 0.00 1007.8
20260505032334 0 198 2.0 3.0 0.00 0.00 0.00 1007.8
20260505031831 0 180 3.0 3.0 0.00 0.00 0.00 1007.8
20260505031327 0 182 3.0 3.0 0.00 0.00 0.00 1007.8
20260505030825 0 181 3.0 3.0 0.00 0.00 0.00 1007.8
20260505030321 0 202 2.0 2.0 0.00 0.00 0.00 1008.1
20260505025816 0 190 2.0 2.0 0.00 0.00 0.00 1008.1
20260505025314 0 178 4.0 5.0 0.00 0.00 0.00 1008.1
20260505024812 0 204 2.0 2.0 0.00 0.00 0.00 1008.1
20260505024310 0 169 1.0 2.0 0.00 0.00 0.00 1008.1
20260505023807 0 169 3.0 3.0 0.00 0.00 0.00 1008.1
20260505023304 0 178 3.0 3.0 0.00 0.00 0.00 1007.8
20260505022801 0 176 2.0 2.0 0.00 0.00 0.00 1007.8
20260505022258 0 174 2.0 2.0 0.00 0.00 0.00 1007.8
20260505021755 0 140 4.0 5.0 0.00 0.00 0.00 1007.8
20260505021251 0 171 2.0 3.0 0.00 0.00 0.00 1007.5
20260505020747 0 178 3.0 3.0 0.00 0.00 0.00 1007.8
20260505020243 0 199 4.0 5.0 0.00 0.00 0.00 1007.5
20260505015740 0 192 2.0 2.0 0.00 0.00 0.00 1007.8
20260505015237 0 191 2.0 3.0 0.00 0.00 0.00 1007.8
20260505014734 0 198 2.0 2.0 0.00 0.00 0.00 1007.5
20260505014232 0 198 3.0 3.0 0.00 0.00 0.00 1007.5
20260505013728 0 183 2.0 2.0 0.00 0.00 0.00 1007.5
20260505013225 0 183 3.0 3.0 0.00 0.00 0.00 1007.5
20260505012723 0 216 3.0 5.0 0.00 0.00 0.00 1007.5
20260505012220 0 194 3.0 3.0 0.00 0.00 0.00 1007.5
20260505011716 0 174 2.0 2.0 0.00 0.00 0.00 1007.8
20260505011214 0 185 2.0 3.0 0.00 0.00 0.00 1007.5
20260505010708 0 214 2.0 2.0 0.00 0.00 0.00 1007.8
20260505010206 0 205 1.0 1.0 0.00 0.00 0.00 1007.5
20260505005702 0 190 2.0 2.0 0.00 0.00 0.00 1007.8
20260505005159 0 190 3.0 3.0 0.00 0.00 0.00 1007.5
20260505004656 0 176 3.0 3.0 0.00 0.00 0.00 1007.5
20260505004152 0 197 2.0 2.0 0.00 0.00 0.00 1007.5
20260505003649 0 185 2.0 2.0 0.00 0.00 0.00 1007.8
20260505003147 0 185 1.0 2.0 0.00 0.00 0.00 1007.5
20260505002643 0 198 1.0 2.0 0.00 0.00 0.00 1007.5
20260505002141 0 183 1.0 2.0 0.00 0.00 0.00 1007.8
20260505001638 0 182 2.0 2.0 0.00 0.00 0.00 1007.5
20260505001136 0 185 4.0 5.0 0.00 0.00 0.00 1007.8
20260505000633 0 177 2.0 2.0 0.00 0.00 0.00 1007.8
20260505000131 0 181 2.0 2.0 0.00 0.00 0.00 1007.8
20260504235627 0 192 3.0 5.0 0.00 0.00 0.00 1007.5
20260504235123 0 209 3.0 3.0 0.00 0.00 0.00 1007.8
20260504234621 0 187 4.0 5.0 0.00 0.00 0.00 1007.8
20260504234118 0 197 3.0 5.0 0.00 0.00 0.00 1008.1
20260504233614 0 197 3.0 3.0 0.00 0.00 0.00 1008.1
20260504233110 0 194 3.0 5.0 0.00 0.00 0.00 1007.8
20260504232607 0 223 3.0 5.0 0.00 0.00 0.00 1008.1
20260504232104 0 180 3.0 3.0 0.00 0.00 0.00 1008.1
20260504231601 0 192 5.0 6.0 0.00 0.00 0.00 1008.1
20260504231057 0 203 3.0 3.0 0.00 0.00 0.00 1008.5
20260504230553 0 178 2.0 2.0 0.00 0.00 0.00 1008.5
20260504230052 0 178 4.0 5.0 0.00 0.00 0.00 1008.5
20260504225549 0 234 5.0 6.0 0.00 0.00 0.00 1008.5
20260504225046 0 190 4.0 6.0 0.00 0.00 0.00 1008.5
20260504224543 0 199 6.0 7.0 0.00 0.00 0.00 1008.5
20260504224040 0 172 5.0 7.0 0.00 0.00 0.00 1008.5
20260504223537 0 149 4.0 6.0 0.00 0.00 0.00 1008.5
20260504223032 0 217 5.0 7.0 0.00 0.00 0.00 1008.5
20260504222530 0 174 6.0 7.0 0.00 0.00 0.00 1008.5
20260504222027 0 214 2.0 2.0 0.00 0.00 0.00 1008.5
20260504221524 0 179 6.0 8.0 0.00 0.00 0.00 1008.5
20260504221021 0 182 3.0 5.0 0.00 0.00 0.00 1008.8
20260504220517 0 173 3.0 6.0 0.00 0.00 0.00 1008.5
20260504220015 0 173 5.0 7.0 0.00 0.00 0.00 1008.8
20260504215511 0 176 5.0 6.0 0.00 0.00 0.00 1009.2
20260504215008 0 242 2.0 2.0 0.00 0.00 0.00 1009.2
20260504214504 0 214 2.0 3.0 0.00 0.00 0.00 1009.2
20260504214001 0 209 2.0 3.0 0.00 0.00 0.00 1009.2
20260504213456 0 245 3.0 5.0 0.00 0.00 0.00 1009.2
20260504212955 0 204 3.0 5.0 0.00 0.00 0.00 1009.5
20260504212450 0 221 2.0 3.0 0.00 0.00 0.00 1009.5
20260504211948 0 162 2.0 2.0 0.00 0.00 0.00 1009.2
20260504211444 0 188 3.0 6.0 0.00 0.00 0.00 1009.8
20260504210942 0 154 3.0 3.0 0.00 0.00 0.00 1009.8
20260504210438 0 238 3.0 5.0 0.00 0.00 0.00 1009.8
20260504205935 0 197 4.0 6.0 0.00 0.00 0.00 1009.8
20260504205433 0 202 2.0 2.0 0.00 0.00 0.00 1010.2
20260504204931 0 189 3.0 3.0 0.00 0.00 0.00 1009.8
20260504204429 0 171 5.0 7.0 0.00 0.00 0.00 1010.2
20260504203928 0 165 5.0 6.0 0.00 0.00 0.00 1009.8
20260504203425 0 173 2.0 3.0 0.00 0.00 0.00 1010.2
20260504202921 0 193 3.0 3.0 0.00 0.00 0.00 1010.5
20260504202418 0 210 2.0 5.0 0.00 0.00 0.00 1010.5
20260504201914 0 194 1.0 1.0 0.00 0.00 0.00 1010.5
20260504201412 0 216 3.0 3.0 0.00 0.00 0.00 1010.8
20260504200909 0 209 3.0 3.0 0.00 0.00 0.00 1010.8
20260504200406 0 195 4.0 5.0 0.00 0.00 0.00 1010.8
20260504195903 0 174 5.0 7.0 0.00 0.00 0.00 1011.2
20260504195358 0 180 4.0 5.0 0.00 0.00 0.00 1011.2
20260504194855 0 202 4.0 7.0 0.00 0.00 0.00 1011.2
20260504194351 0 195 3.0 3.0 0.00 0.00 0.00 1011.5
20260504193847 0 185 5.0 6.0 0.00 0.00 0.00 1011.2
20260504193344 0 229 3.0 5.0 0.00 0.00 0.00 1011.5
20260504192843 0 155 3.0 5.0 0.00 0.00 0.00 1011.5
20260504192340 0 188 5.0 7.0 0.00 0.00 0.00 1011.9
20260504191839 0 204 2.0 3.0 0.00 0.00 0.00 1011.9
20260504191336 0 191 4.0 5.0 0.00 0.00 0.00 1011.9
20260504190831 0 182 5.0 7.0 0.00 0.00 0.00 1011.9
20260504190327 0 187 3.0 5.0 0.00 0.00 0.00 1011.9
20260504185824 0 208 2.0 3.0 0.00 0.00 0.00 1012.2
20260504185321 0 200 5.0 7.0 0.00 0.00 0.00 1012.2
20260504184817 0 205 7.0 8.0 0.00 0.00 0.00 1012.2
20260504184313 0 163 7.0 8.0 0.00 0.00 0.00 1012.2
20260504183809 0 244 5.0 8.0 0.00 0.00 0.00 1012.2
20260504183307 0 182 5.0 7.0 0.00 0.00 0.00 1012.5
20260504182804 0 177 3.0 5.0 0.00 0.00 0.00 1012.9
20260504182301 0 231 3.0 5.0 0.00 0.00 0.00 1012.5
20260504181759 0 186 5.0 7.0 0.00 0.00 0.00 1012.9
20260504181256 0 209 5.0 7.0 0.00 0.00 0.00 1012.5
20260504180755 0 174 4.0 5.0 0.00 0.00 0.00 1012.9
20260504180253 0 194 2.0 3.0 0.00 0.00 0.00 1012.9
20260504175750 0 215 3.0 5.0 0.00 0.00 0.00 1013.2
20260504175247 0 138 4.0 6.0 0.00 0.00 0.00 1013.2
20260504174745 0 163 5.0 7.0 0.00 0.00 0.00 1013.2
20260504174243 0 169 4.0 6.0 0.00 0.00 0.00 1013.2
20260504173739 0 217 3.0 5.0 0.00 0.00 0.00 1013.6
20260504173236 0 232 5.0 6.0 0.00 0.00 0.00 1014.0
20260504172733 0 149 4.0 7.0 0.00 0.00 0.00 1014.0
20260504172229 0 190 4.0 6.0 0.00 0.00 0.00 1013.6
20260504171726 0 269 4.0 6.0 0.00 0.00 0.00 1014.0
20260504171223 0 269 4.0 5.0 0.00 0.00 0.00 1014.0
20260504170720 0 189 4.0 6.0 0.00 0.00 0.00 1014.0
20260504170217 0 227 3.0 6.0 0.00 0.00 0.00 1014.0
20260504160135 0 215 3.0 5.0 0.00 0.00 0.00 1014.3
20260504151103 0 183 3.0 5.0 0.00 0.00 0.00 1014.7
20260504150600 0 169 3.0 3.0 0.00 0.00 0.00 1014.7
20260504141026 0 210 3.0 5.0 0.00 0.00 0.00 1014.7
20260504140522 0 212 3.0 3.0 0.00 0.00 0.00 1014.7
20260504130447 0 157 3.0 3.0 0.00 0.00 0.00 1015.0